カタログに戻る

STARLINK-30519

運用中通信VLEO
NORAD 57985·PAYLOAD·🇺🇸 United States

打ち上げ Sep 30, 2023 から Cape Canaveral Space Force Station

Loading…

次のパス (今後24時間)

TLE

最新Source: CelesTrak SupGP

元期: Sep 14, 2026, 21:14 UTC

1 57985C 23151X   26257.88520833 -.00033556  00000+0 -12150-2 0  2576
2 57985  43.0036   2.3960 0001559 271.5449 179.8144 15.27604834    19

AllMySatでSTARLINK-30519をリアルタイム追跡

Download on the App Store